FENGYUN 3B

Last updated on Sat Apr 13 2024 01:02:16 GMT+0100 (British Summer Time)

1 37214U 10059A 24103.64482007 .00000112 00000+0 82574-4 0 9996 2 37214 99.0619 130.8043 0021111 278.2095 190.0189 14.14468592694945
UTC large
Height (km)
Speed (km/s)
/
Latitude / Longitude
Inclination (degrees)
Orbital Period (minutes)
Azimuth
Elevation
Range (km)
Doppler Factor

Next 0 passes for location: London (51.5072 / 0.1276)

Sorry there are no passes over London.